TimeMST,TemperatureF,Dew PointF,Humidity,Sea Level PressureIn,VisibilityMPH,Wind Direction,Wind SpeedMPH,Gust SpeedMPH,PrecipitationIn,Events,Conditions,WindDirDegrees,DateUTC
12:53 AM,21.0,18.0,88,30.41,10.0,ESE,3.5,-,N/A,,Clear,110,2012-11-15 07:53:00
1:53 AM,19.0,18.0,96,30.41,4.0,ESE,4.6,-,N/A,,Clear,120,2012-11-15 08:53:00
2:53 AM,19.0,17.1,92,30.44,8.0,SE,3.5,-,N/A,,Clear,140,2012-11-15 09:53:00
3:53 AM,17.1,15.1,92,30.44,7.0,SSW,3.5,-,N/A,,Clear,210,2012-11-15 10:53:00
4:53 AM,14.0,12.0,92,30.47,7.0,Calm,Calm,-,N/A,,Clear,0,2012-11-15 11:53:00
5:53 AM,12.0,10.0,92,30.50,8.0,Calm,Calm,-,N/A,,Clear,0,2012-11-15 12:53:00
6:16 AM,10.4,8.6,92,30.33,9.0,NNW,5.8,-,N/A,,Scattered Clouds,340,2012-11-15 13:16:00
6:27 AM,10.4,8.6,92,30.33,7.0,NW,4.6,-,N/A,,Mostly Cloudy,320,2012-11-15 13:27:00
6:40 AM,10.4,8.6,92,30.33,1.8,WNW,6.9,-,N/A,,Overcast,300,2012-11-15 13:40:00
6:53 AM,10.9,8.1,88,30.51,2.0,WNW,5.8,-,N/A,,Overcast,290,2012-11-15 13:53:00
6:56 AM,10.4,8.6,92,30.33,1.0,WNW,5.8,-,N/A,,Mist,300,2012-11-15 13:56:00
7:03 AM,10.4,10.4,100,30.33,0.2,Calm,Calm,-,N/A,Fog,Light Freezing Fog,0,2012-11-15 14:03:00
7:51 AM,12.2,8.6,85,30.34,2.0,Calm,Calm,-,N/A,,Overcast,0,2012-11-15 14:51:00
7:53 AM,12.0,8.1,84,30.52,6.0,Calm,Calm,-,N/A,,Overcast,0,2012-11-15 14:53:00
8:00 AM,12.2,8.6,85,30.34,1.2,Calm,Calm,-,N/A,,Overcast,0,2012-11-15 15:00:00
8:07 AM,14.0,12.2,93,30.34,0.2,Calm,Calm,-,N/A,Fog,Light Freezing Fog,0,2012-11-15 15:07:00
8:53 AM,15.1,14.0,95,30.52,0.2,Calm,Calm,-,N/A,Fog,Light Freezing Fog,0,2012-11-15 15:53:00
9:26 AM,17.6,15.8,93,30.34,1.5,Calm,Calm,-,N/A,,Mostly Cloudy,0,2012-11-15 16:26:00
9:35 AM,17.6,17.6,100,30.34,2.5,Calm,Calm,-,N/A,,Mostly Cloudy,0,2012-11-15 16:35:00
9:47 AM,17.6,17.6,100,30.34,1.0,Calm,Calm,-,N/A,,Mostly Cloudy,0,2012-11-15 16:47:00
9:55 AM,17.6,15.8,93,30.34,0.2,Calm,Calm,-,N/A,Fog,Light Freezing Fog,0,2012-11-15 16:55:00
10:21 AM,19.4,17.6,93,30.33,1.2,Calm,Calm,-,N/A,,Overcast,0,2012-11-15 17:21:00
10:31 AM,21.2,19.4,93,30.33,2.5,Calm,Calm,-,N/A,,Mostly Cloudy,0,2012-11-15 17:31:00
10:33 AM,21.2,19.4,93,30.33,3.0,Calm,Calm,-,N/A,,Scattered Clouds,0,2012-11-15 17:33:00
10:53 AM,25.0,21.9,88,30.46,6.0,Calm,Calm,-,N/A,,Clear,0,2012-11-15 17:53:00
11:53 AM,28.0,23.0,81,30.43,9.0,Calm,Calm,-,N/A,,Clear,0,2012-11-15 18:53:00
12:53 PM,30.9,24.1,76,30.38,10.0,ESE,4.6,-,N/A,,Clear,120,2012-11-15 19:53:00
1:53 PM,34.0,25.0,70,30.35,10.0,SE,3.5,-,N/A,,Clear,130,2012-11-15 20:53:00
2:53 PM,37.9,27.0,65,30.33,10.0,Calm,Calm,-,N/A,,Clear,0,2012-11-15 21:53:00
3:53 PM,37.9,27.0,65,30.32,10.0,Calm,Calm,-,N/A,,Clear,0,2012-11-15 22:53:00
4:53 PM,35.1,26.1,70,30.33,10.0,Calm,Calm,-,N/A,,Clear,0,2012-11-15 23:53:00
5:53 PM,30.0,25.0,82,30.35,10.0,ESE,3.5,-,N/A,,Clear,120,2012-11-16 00:53:00
6:53 PM,28.0,24.1,85,30.36,10.0,East,4.6,-,N/A,,Clear,100,2012-11-16 01:53:00
7:53 PM,27.0,24.1,89,30.35,10.0,SE,4.6,-,N/A,,Clear,130,2012-11-16 02:53:00
8:53 PM,21.9,19.0,89,30.35,10.0,Calm,Calm,-,N/A,,Clear,0,2012-11-16 03:53:00
9:53 PM,21.0,18.0,88,30.35,9.0,Calm,Calm,-,N/A,,Clear,0,2012-11-16 04:53:00
10:53 PM,18.0,16.0,92,30.32,5.0,Calm,Calm,-,N/A,,Clear,0,2012-11-16 05:53:00
11:53 PM,16.0,12.9,88,30.31,6.0,Calm,Calm,-,N/A,,Clear,0,2012-11-16 06:53:00